Tracking 18033 objects as of 23-March-2017
HD Live streaming from Space Station
objects crossing your sky now

RIGIDSPHERE 2 (LCS 4)

Track RIGIDSPHERE 2 (LCS 4) now!
10-day predictions
RIGIDSPHERE 2 (LCS 4) is classified as:


NORAD ID: 5398
Int'l Code: 1971-067E
Perigee: 742.1 km
Apogee: 832.0 km
Inclination: 87.6 °
Period: 100.4 minutes
Semi major axis: 7158 km
RCS: 0.9311 m2 (medium)
Launch date: August 7, 1971
Source: United States (US)
Launch site: AIR FORCE WESTERN TEST RANGE (AFWTR)
Your satellite tracking list
Your tracking list is empty





NASA's NSSDC Master Catalog

Two Line Element Set (TLE):
1  5398U 71067E   17080.91352868 +.00000181 +00000-0 +57698-4 0  9993
2  5398 087.6309 190.4237 0062821 212.1060 147.6305 14.33553260390063
Source of the keplerian elements: AFSPC